User: anonymous   Login
Location: Fort Wayne
(41.1310°N, 85.1290°W)
Time: 12:32:28
(UTC-04:00)
Language:

IDEFIX/ARIANE 42P - Orbit

View from above orbital plane
View from above orbital plane
View from above satellite
View from above satellite

Ground track
Ground track

The orbit data is extracted from the following two-line orbital elements,

1 27422U 02021B   17087.86156445 -.00000042 +00000-0 -58309-6 0  9993
2 27422 098.2304 092.5790 0013440 112.4969 247.7638 14.29251570777094
Epoch (UTC): 28 March 2017 20:40:39
Eccentricity: 0.0013440
inclination: 98.2304°
perigee height: 784 km
apogee height: 804 km
right ascension of ascending node: 92.5790°
argument of perigee: 112.4969°
revolutions per day: 14.29251570
mean anomaly at epoch: 247.7638°
orbit number at epoch: 77709

The dashed part of the orbit path shows where the satellite is in the earth's shadow,  

DLR